Tracking 19485 objects as of 21-Jan-2019
HD Live streaming from Space Station
objects crossing your sky now

GORIZONT 2

Track GORIZONT 2 now!
GORIZONT 2 is classified as:


NORAD ID: 11440
Int'l Code: 1979-062A
Perigee: 35,757.4 km
Apogee: 35,811.2 km
Inclination: 11.9 °
Period: 1,435.6 minutes
Semi major axis: 42155 km
RCS: 3.981 m2 (large)
Launch date: July 5, 1979
Source: Commonwealth of Independent States (former USSR) (CIS)
Launch site: TYURATAM MISSILE AND SPACE COMPLEX (TTMTR)
aabbcc
Your satellite tracking list
Your tracking list is empty




NASA's NSSDC Master Catalog

Two Line Element Set (TLE):
1 11440U 79062A   19020.87046104 -.00000149 +00000-0 +00000-0 0  9991
2 11440 011.9054 316.7069 0006381 315.7034 240.8359 01.00305621110905
Source of the keplerian elements: AFSPC